Stations météo

réclame
Mon MeteoGroup
Parkalompolo, Suède (2072): Température de l'air & dewpoint: 13.06.2019 23:00:00 - 19.06.2019 23:00:00 (CEST)Parkalompolo, Suède (2072): Vitesse du vent & gusts: 13.06.2019 23:00:00 - 19.06.2019 23:00:00 (CEST)Parkalompolo, Suède (2072): Direction du vent: 13.06.2019 23:00:00 - 19.06.2019 23:00:00 (CEST)Parkalompolo, Suède (2072): reduced air pressure: 13.06.2019 23:00:00 - 19.06.2019 23:00:00 (CEST)Parkalompolo, Suède (2072): visibility: 13.06.2019 23:00:00 - 19.06.2019 23:00:00 (CEST)Parkalompolo, Suède (2072): Quantités de précipitations: 13.06.2019 23:00:00 - 19.06.2019 23:00:00 (CEST)
Date & Time tt [°C] td [°C] ff [km/h] ff [knt] fx [km/h] fx [knt] dd ppp [hPa] vv [km] rr [mm]
19.06.2019 23:00:00 - - - - - - - - - -
19.06.2019 22:00:00 9,6 6,7 6 3 12 6 SE 1010,6 11 2,0
19.06.2019 21:00:00 11,8 5,9 5 3 14 8 SW 1009,9 50 0,0
19.06.2019 20:00:00 12,9 5,6 8 4 13 7 SSW 1009,4 47 0,0
19.06.2019 19:00:00 12,5 6,1 0 0 14 7 N 1009,2 50 0,0
19.06.2019 18:00:00 13,2 5,8 9 5 26 14 NNW 1008,8 35 0,0
19.06.2019 17:00:00 11,3 6,8 6 3 24 13 SSW 1008,7 27 0,0
19.06.2019 16:00:00 13,4 4,3 9 5 24 13 NW 1008,3 40 0,0
19.06.2019 15:00:00 13,7 6,1 11 6 27 15 N 1007,9 39 0,0
19.06.2019 14:00:00 13,6 5,5 8 5 16 9 N 1007,6 41 0,0
19.06.2019 13:00:00 14,1 4,1 6 4 16 9 W 1007,2 38 0,0
19.06.2019 12:00:00 13,5 3,6 9 5 18 10 WNW 1007,1 45 0,0
19.06.2019 11:00:00 13,6 3,9 7 4 21 12 NW 1006,8 47 0,0
19.06.2019 10:00:00 12,9 4,3 9 5 18 10 NW 1006,6 43 0,0
19.06.2019 09:00:00 11,9 4,8 8 4 19 11 WNW 1006,6 46 0,0
19.06.2019 08:00:00 11,5 4,9 10 6 22 12 NNW 1006,3 47 0,0
19.06.2019 07:00:00 10,8 5,5 10 5 19 10 NW 1006,4 38 0,0
19.06.2019 06:00:00 9,8 5,2 11 6 18 10 NW 1006,6 49 0,0
19.06.2019 05:00:00 8,3 5,2 9 5 16 8 WNW 1007,0 46 0,0
19.06.2019 04:00:00 6,8 4,5 5 3 13 7 W 1006,8 47 0,0
19.06.2019 03:00:00 6,1 4,1 4 2 12 6 WNW 1006,5 50 0,0
19.06.2019 02:00:00 7,1 4,9 6 3 14 8 NW 1006,3 50 0,0
19.06.2019 01:00:00 7,8 5,6 8 5 16 9 NW 1006,1 50 0,0
19.06.2019 00:00:00 7,8 5,8 8 4 17 9 NW 1005,9 50 0,0
18.06.2019 23:00:00 8,3 6,3 9 5 18 10 NW 1005,8 35 0,1
18.06.2019 22:00:00 9,0 6,6 8 5 15 8 NW 1005,6 50 0,0
18.06.2019 21:00:00 9,6 7,2 9 5 18 10 N 1005,1 50 0,3
18.06.2019 20:00:00 10,5 7,2 4 2 10 5 WNW 1005,4 25 0,5
18.06.2019 19:00:00 12,3 5,9 5 3 16 8 NNW 1005,2 48 0,0
18.06.2019 18:00:00 13,1 5,7 9 5 22 12 N 1004,8 46 0,0
18.06.2019 17:00:00 13,7 5,8 14 8 24 13 NE 1005,3 41 0,0
18.06.2019 16:00:00 11,5 7,0 9 5 19 10 NNE 1006,4 40 0,1
18.06.2019 15:00:00 11,3 6,8 10 6 17 9 N 1006,5 30 0,5
18.06.2019 14:00:00 13,3 5,2 7 4 14 8 N 1007,0 36 0,0
18.06.2019 13:00:00 14,2 2,4 10 5 16 9 NE 1007,1 43 0,0
18.06.2019 12:00:00 14,5 1,4 9 5 23 13 ENE 1007,2 36 0,0
18.06.2019 11:00:00 14,3 1,2 10 5 20 11 NE 1007,5 33 0,0
18.06.2019 10:00:00 13,4 0,4 11 6 19 10 NE 1007,9 46 0,0
18.06.2019 09:00:00 12,7 0,8 9 5 16 9 NE 1008,1 33 0,0
18.06.2019 08:00:00 12,3 0,4 11 6 27 15 NE 1008,0 34 0,0
18.06.2019 07:00:00 12,0 1,3 13 7 27 14 NE 1008,0 33 0,0
18.06.2019 06:00:00 11,3 1,0 18 10 31 17 NE 1008,0 25 0,0
18.06.2019 05:00:00 10,3 0,9 13 7 23 12 NE 1008,2 44 0,0
18.06.2019 04:00:00 9,5 0,7 12 6 23 12 NNE 1008,1 47 0,0
18.06.2019 03:00:00 9,4 0,6 13 7 22 12 NNE 1008,0 50 0,0
18.06.2019 02:00:00 9,9 0,8 12 6 21 12 NNE 1007,8 48 0,0
18.06.2019 01:00:00 11,3 1,5 15 8 23 13 NE 1007,4 47 0,0
18.06.2019 00:00:00 13,0 3,6 9 5 19 10 N 1006,8 30 0,0
17.06.2019 23:00:00 15,2 2,7 0 0 7 4 N 1006,1 50 0,0
17.06.2019 22:00:00 16,2 1,9 3 2 8 4 E 1005,8 50 0,0
17.06.2019 21:00:00 17,1 2,7 4 2 12 7 E 1005,5 50 0,0
17.06.2019 20:00:00 18,2 2,9 6 3 11 6 E 1005,3 36 0,0
17.06.2019 19:00:00 18,8 2,6 3 2 11 6 N 1005,3 41 0,0
17.06.2019 18:00:00 18,9 3,1 5 3 17 9 NE 1005,7 37 0,0
17.06.2019 17:00:00 18,7 3,3 6 3 18 10 E 1005,9 36 0,0
17.06.2019 16:00:00 19,7 3,8 5 3 16 9 WSW 1006,0 34 0,0
17.06.2019 15:00:00 18,1 3,9 5 3 20 11 NW 1006,2 37 0,0
17.06.2019 14:00:00 17,5 2,6 3 2 11 6 SSE 1006,6 45 0,0
17.06.2019 13:00:00 17,3 2,8 4 2 15 8 SE 1006,8 41 0,0
17.06.2019 12:00:00 16,5 1,0 3 2 19 10 ESE 1006,8 36 0,0
17.06.2019 11:00:00 16,4 1,3 9 5 21 11 NE 1007,3 34 0,0
17.06.2019 10:00:00 14,0 2,6 11 6 21 11 ENE 1007,8 44 0,0
17.06.2019 09:00:00 12,2 2,9 9 5 21 11 NE 1008,5 46 0,0
17.06.2019 08:00:00 10,4 3,0 11 6 19 10 NNE 1009,1 50 0,0
17.06.2019 07:00:00 9,2 2,5 7 4 14 8 NNE 1009,8 44 0,0
17.06.2019 06:00:00 9,7 0,3 7 4 17 9 NE 1009,8 50 0,0
17.06.2019 05:00:00 8,9 0,1 7 4 16 8 NNE 1010,2 50 0,0
17.06.2019 04:00:00 8,4 0,1 9 5 17 9 NNE 1010,6 50 0,0
17.06.2019 03:00:00 8,6 0,3 5 3 13 7 NNE 1010,8 50 0,0
17.06.2019 02:00:00 8,8 0,0 5 3 18 10 NNE 1011,0 50 0,0
17.06.2019 01:00:00 9,9 0,0 8 4 15 8 NE 1010,8 50 0,0
17.06.2019 00:00:00 11,1 0,8 9 5 18 10 NE 1010,8 50 0,0
16.06.2019 23:00:00 12,8 -0,1 10 5 17 9 NNE 1010,4 50 0,0
16.06.2019 22:00:00 14,5 0,0 12 7 23 13 NE 1010,4 50 0,0
16.06.2019 21:00:00 16,2 0,3 15 8 29 15 NE 1010,1 50 0,0
16.06.2019 20:00:00 17,8 0,9 13 7 26 14 NE 1009,9 43 0,0
16.06.2019 19:00:00 18,8 0,9 11 6 21 12 NE 1009,7 42 0,0
16.06.2019 18:00:00 19,3 0,8 9 5 24 13 ENE 1009,9 50 0,0
16.06.2019 17:00:00 20,0 0,4 8 4 20 11 NE 1009,9 35 0,0
16.06.2019 16:00:00 19,6 0,6 8 5 24 13 N 1010,2 44 0,0
16.06.2019 15:00:00 19,6 0,6 10 5 23 12 N 1010,5 48 0,0
16.06.2019 14:00:00 19,3 1,3 11 6 23 12 NE 1010,7 39 0,0
16.06.2019 13:00:00 19,2 2,1 8 5 24 13 N 1010,9 31 0,0
16.06.2019 12:00:00 18,2 0,3 8 5 18 10 N 1011,3 45 0,0
16.06.2019 11:00:00 17,4 1,0 11 6 20 11 N 1011,6 43 0,0
16.06.2019 10:00:00 17,1 1,1 10 6 22 12 N 1011,8 33 0,0
16.06.2019 09:00:00 16,3 -0,4 9 5 21 11 NNE 1012,1 42 0,0
16.06.2019 08:00:00 15,7 -0,5 12 6 22 12 N 1012,2 42 0,0
16.06.2019 07:00:00 15,2 -0,6 10 5 20 11 NNW 1012,1 40 0,0
16.06.2019 06:00:00 14,1 0,0 8 5 16 8 NNW 1012,2 44 0,0
16.06.2019 05:00:00 12,7 1,1 9 5 16 9 NW 1012,5 50 0,0
16.06.2019 04:00:00 12,7 0,8 3 2 13 7 WNW 1012,8 42 0,0
16.06.2019 03:00:00 11,5 0,6 7 4 14 8 NW 1013,2 46 0,0
16.06.2019 02:00:00 9,0 -0,9 3 1 12 7 E 1013,5 50 0,0
16.06.2019 01:00:00 12,2 0,3 9 5 19 10 NNW 1012,9 50 0,0
16.06.2019 00:00:00 14,1 -0,8 8 5 20 11 NNW 1012,7 50 0,0
15.06.2019 23:00:00 15,7 -2,3 8 5 19 10 NNW 1012,4 50 0,0
15.06.2019 22:00:00 18,2 -1,6 9 5 20 11 NNW 1011,7 50 0,0
15.06.2019 21:00:00 19,8 -2,5 13 7 27 14 NNW 1011,4 50 0,0
15.06.2019 20:00:00 22,0 -2,0 9 5 21 11 WNW 1011,0 44 0,0
15.06.2019 19:00:00 22,1 -1,3 9 5 20 11 W 1011,5 44 0,0
15.06.2019 18:00:00 21,4 1,1 9 5 17 9 WSW 1012,2 42 0,0
15.06.2019 17:00:00 20,8 0,6 9 5 21 11 NW 1012,7 44 0,0
15.06.2019 16:00:00 20,5 -0,2 10 5 24 13 WNW 1013,4 35 0,0
15.06.2019 15:00:00 19,9 0,3 10 5 19 10 WSW 1013,9 48 0,0
15.06.2019 14:00:00 19,1 1,1 10 6 24 13 WSW 1014,6 42 0,0
15.06.2019 13:00:00 18,4 2,3 8 5 14 8 SSW 1014,9 42 0,0
15.06.2019 12:00:00 17,0 0,6 4 2 20 11 E 1015,5 43 0,0
15.06.2019 11:00:00 15,6 1,0 3 2 16 8 NNE 1016,1 39 0,0
15.06.2019 10:00:00 13,8 0,4 4 2 16 9 N 1016,7 39 0,0
15.06.2019 09:00:00 12,8 1,2 5 3 14 8 N 1017,0 40 0,0
15.06.2019 08:00:00 11,3 1,0 4 2 17 9 N 1017,4 45 0,0
15.06.2019 07:00:00 9,9 1,0 6 3 13 7 N 1017,8 37 0,0
15.06.2019 06:00:00 9,3 1,2 7 4 21 12 NNE 1018,2 48 0,0
15.06.2019 05:00:00 8,1 0,8 13 7 22 12 NNE 1018,2 50 0,0
15.06.2019 04:00:00 7,4 -0,1 12 6 16 9 NNE 1018,3 50 0,0
15.06.2019 03:00:00 7,1 -0,6 7 4 21 11 NNE 1018,4 50 0,0
15.06.2019 02:00:00 7,4 -1,6 11 6 17 9 NNE 1018,2 50 0,0
15.06.2019 01:00:00 8,5 -2,5 7 4 22 12 NNE 1017,7 50 0,0
15.06.2019 00:00:00 10,0 -1,7 11 6 23 13 NNE 1016,9 50 0,0
14.06.2019 23:00:00 12,4 -2,3 15 8 29 16 NNE 1016,3 50 0,0
14.06.2019 22:00:00 14,1 -5,1 14 7 39 21 NNE 1015,6 50 0,0
14.06.2019 21:00:00 16,1 -2,9 18 10 37 20 NNE 1015,0 50 0,0
14.06.2019 20:00:00 18,0 -0,3 21 12 37 20 N 1014,0 49 0,0
14.06.2019 19:00:00 20,8 1,1 9 5 28 15 N 1013,2 40 0,0
14.06.2019 18:00:00 21,3 1,0 8 4 21 11 NNW 1013,5 45 0,0
14.06.2019 17:00:00 20,9 -0,4 7 4 23 12 NW 1014,0 38 0,0
14.06.2019 16:00:00 20,8 1,1 10 5 19 10 W 1014,7 36 0,0
14.06.2019 15:00:00 19,8 0,8 11 6 24 13 W 1015,5 43 0,0
14.06.2019 14:00:00 19,3 0,8 8 4 21 12 WSW 1016,2 43 0,0
14.06.2019 13:00:00 18,7 1,2 10 6 21 11 SW 1017,0 37 0,0
14.06.2019 12:00:00 17,8 2,9 9 5 20 11 SW 1017,8 34 0,0
14.06.2019 11:00:00 17,5 3,4 5 3 18 10 S 1018,3 43 0,0
14.06.2019 10:00:00 16,2 1,9 6 3 17 9 SW 1018,7 38 0,0
14.06.2019 09:00:00 15,4 1,9 5 3 13 7 NW 1019,1 45 0,0
14.06.2019 08:00:00 15,1 1,6 4 2 14 7 SW 1019,6 40 0,0
14.06.2019 07:00:00 14,0 1,9 6 3 13 7 W 1020,1 44 0,0
14.06.2019 06:00:00 12,5 2,6 4 2 9 5 W 1020,8 35 0,0
14.06.2019 05:00:00 10,8 3,1 0 0 4 2 N 1021,3 48 0,0
14.06.2019 04:00:00 8,4 2,2 0 0 1 1 N 1022,2 50 0,0
14.06.2019 03:00:00 4,6 0,0 0 0 5 3 N 1023,0 50 0,0
14.06.2019 02:00:00 4,2 0,3 0 0 2 1 N 1023,4 50 0,0
14.06.2019 01:00:00 4,8 -0,4 0 0 1 1 N 1023,6 50 0,0
14.06.2019 00:00:00 6,4 0,3 0 0 5 3 N 1023,3 50 0,0
13.06.2019 23:00:00 9,2 0,4 0 0 5 3 N 1022,9 50 0,0

tt = Température de l'air
td = dewpoint
ff = Vitesse du vent
fx = gusts
dd = Direction du vent
ppp = reduced air pressure
vv = visibility
rr = Quantités de précipitations

stations d'obs. à proximité